Weather History for K3LF - June, 2014

Change the Weather History Date:

Sunday, June 15, 2014

  Actual Average (KSPI) Record (KSPI)
Temperature  
Mean Temperature 72 °F 73 °F  
Max Temperature 83 °F 83 °F 100 °F (1987)
Min Temperature 61 °F 62 °F 46 °F (1917)
Degree Days  
Heating Degree Days 0 0  
Month to date heating degree days 11  
Since 1 June heating degree days 11  
Since 1 July heating degree days 5481  
Cooling Degree Days 6 8  
Month to date cooling degree days 97  
Year to date cooling degree days 201  
Since 1 June cooling degree days 97  
Growing Degree Days 22 (Base 50)    
Moisture  
Dew Point 63 °F    
Average Humidity 74    
Maximum Humidity 94    
Minimum Humidity 60    
Precipitation  
Precipitation 0.09 in 0.15 in 2.54 in (1921)
Month to date precipitation 2.31  
Year to date precipitation 16.32  
Snow  
Snow 0.00 in 0.00 in 0.00 in ()
Month to date snowfall 0.0  
Since 1 June snowfall 0.0  
Since 1 July snowfall 20.9  
Snow Depth -    
Sea Level Pressure  
Sea Level Pressure 29.95 in    
Wind  
Wind Speed 12 mph (South)    
Max Wind Speed 26 mph    
Max Gust Speed 34 mph    
Visibility 10 miles    
Events Rain , Thunderstorm    
T = Trace of Precipitation, MM = Missing Value Source: NWS Daily Summary

Daily Weather History Graph

Daily Weather History Graph

Search for Another Location

Airport or City:

Trip Planner

Search our weather history database for the weather conditions in past years. The results will help you decide how hot, cold, wet, or windy it might be!

Date:

Astronomy

Jun. 15, 2014 Rise Set
Actual Time 5:31 AM CDT 8:26 PM CDT
Civil Twilight 4:59 AM CDT 8:58 PM CDT
Nautical Twilight 4:19 AM CDT 9:39 PM CDT
Astronomical Twilight 3:32 AM CDT 10:26 PM CDT
Moon 10:38 PM CDT (6/15) 8:24 AM CDT (6/15)
Length of Visible Light 15h 59m
Length of Day
14h 54m
Waning Gibbous, 91% of the Moon is Illuminated
Jun 15
Waning Gibbous
Jun 19
Last Quarter
Jun 27
New
Jul 5
First Quarter
Jul 12
Full

Hourly Weather History & Observations

Time (CDT) Temp. Heat Index Dew Point Humidity Pressure Visibility Wind Dir Wind Speed Gust Speed Precip Events Conditions
12:15 AM 64.0 °F - 53.6 °F 69% 29.95 in 10.0 mi SE 9.2 mph - N/A   Clear
12:35 AM 63.5 °F - 53.4 °F 70% 29.95 in 10.0 mi SE 9.2 mph - N/A   Clear
1:15 AM 63.5 °F - 52.7 °F 68% 29.94 in 10.0 mi SE 10.4 mph - N/A   Clear
1:35 AM 62.4 °F - 52.9 °F 71% 29.94 in 10.0 mi SE 9.2 mph - N/A   Clear
1:55 AM 62.6 °F - 52.7 °F 70% 29.93 in 10.0 mi SE 9.2 mph - N/A   Clear
2:15 AM 63.0 °F - 52.7 °F 69% 29.92 in 10.0 mi SE 9.2 mph - N/A   Clear
2:35 AM 63.9 °F - 52.9 °F 67% 29.92 in 10.0 mi SSE 10.4 mph - N/A   Clear
2:55 AM 63.9 °F - 53.1 °F 68% 29.92 in 10.0 mi SSE 11.5 mph - N/A   Clear
3:15 AM 63.5 °F - 53.2 °F 69% 29.92 in 10.0 mi SE 10.4 mph 16.1 mph N/A   Clear
3:35 AM 62.8 °F - 53.6 °F 72% 29.92 in 10.0 mi SE 9.2 mph - N/A   Clear
3:55 AM 62.2 °F - 53.6 °F 73% 29.92 in 10.0 mi SE 10.4 mph - N/A   Clear
4:15 AM 61.7 °F - 54.0 °F 76% 29.92 in 10.0 mi SE 9.2 mph - N/A   Clear
4:35 AM 61.2 °F - 54.0 °F 77% 29.93 in 10.0 mi SE 9.2 mph - N/A   Clear
4:55 AM 61.2 °F - 54.1 °F 78% 29.94 in 10.0 mi SE 9.2 mph - N/A   Scattered Clouds
5:15 AM 62.6 °F - 54.7 °F 75% 29.95 in 10.0 mi SE 9.2 mph - N/A   Mostly Cloudy
5:35 AM 63.0 °F - 54.9 °F 75% 29.96 in 10.0 mi SE 10.4 mph - N/A   Overcast
5:55 AM 62.8 °F - 55.4 °F 77% 29.95 in 10.0 mi SE 11.5 mph - N/A   Mostly Cloudy
6:15 AM 63.1 °F - 55.6 °F 76% 29.95 in 10.0 mi SSE 10.4 mph - N/A   Scattered Clouds
6:35 AM 64.6 °F - 55.9 °F 74% 29.95 in 10.0 mi SSE 11.5 mph 16.1 mph N/A   Overcast
6:55 AM 64.9 °F - 55.9 °F 73% 29.95 in 10.0 mi SSE 11.5 mph - N/A   Scattered Clouds
7:15 AM 66.6 °F - 56.5 °F 70% 29.97 in 10.0 mi SSE 10.4 mph - N/A   Clear
7:35 AM 68.0 °F - 57.4 °F 69% 29.96 in 10.0 mi SSE 11.5 mph - N/A   Clear
7:55 AM 69.8 °F - 58.3 °F 67% 29.96 in 10.0 mi SSE 16.1 mph - N/A   Clear
8:15 AM 70.0 °F - 58.8 °F 68% 29.95 in 10.0 mi SSE 15.0 mph - N/A   Clear
8:35 AM 70.0 °F - 59.2 °F 68% 29.95 in 10.0 mi SSE 16.1 mph 21.9 mph N/A   Clear
8:55 AM 70.7 °F - 60.1 °F 69% 29.96 in 10.0 mi SSE 17.3 mph - N/A   Clear
9:15 AM 71.8 °F - 61.2 °F 69% 29.96 in 10.0 mi SSE 15.0 mph - N/A   Clear
9:35 AM 73.4 °F - 62.2 °F 68% 29.95 in 10.0 mi SSE 16.1 mph 23.0 mph N/A   Scattered Clouds
9:55 AM 73.6 °F - 63.1 °F 70% 29.95 in 10.0 mi South 17.3 mph - N/A   Mostly Cloudy
10:15 AM 73.4 °F - 63.0 °F 70% 29.94 in 10.0 mi SSE 18.4 mph 25.3 mph N/A   Mostly Cloudy
10:35 AM 72.1 °F - 64.4 °F 77% 29.97 in 10.0 mi SSW 12.7 mph 21.9 mph N/A Rain , Thunderstorm Light Thunderstorms and Rain
10:55 AM 69.1 °F - 66.4 °F 91% 29.95 in 10.0 mi South 17.3 mph - 0.09 in Rain Light Rain
11:15 AM 72.3 °F - 67.6 °F 85% 29.95 in 10.0 mi South 11.5 mph - N/A   Scattered Clouds
11:35 AM 74.3 °F - 68.4 °F 82% 29.93 in 10.0 mi SSE 15.0 mph 20.7 mph N/A   Scattered Clouds
11:55 AM 75.7 °F - 69.4 °F 81% 29.92 in 10.0 mi SSE 17.3 mph 23.0 mph N/A   Clear
12:15 PM 76.6 °F - 69.4 °F 78% 29.90 in 10.0 mi South 20.7 mph 31.1 mph N/A   Clear
12:35 PM 77.4 °F - 69.4 °F 76% 29.89 in 10.0 mi South 25.3 mph 29.9 mph N/A   Clear
12:55 PM 77.2 °F - 69.1 °F 76% 29.88 in 10.0 mi South 25.3 mph 34.5 mph N/A   Clear
1:15 PM 78.1 °F - 69.4 °F 75% 29.86 in 10.0 mi SSE 23.0 mph 32.2 mph N/A   Clear
1:35 PM 79.0 °F - 70.2 °F 74% 29.86 in 10.0 mi South 25.3 mph 32.2 mph N/A   Clear
1:55 PM 79.7 °F - 69.6 °F 71% 29.88 in 10.0 mi South 26.5 mph 34.5 mph N/A   Clear
2:15 PM 80.1 °F 83.2 °F 70.0 °F 71% 29.91 in 10.0 mi SSW 24.2 mph 29.9 mph N/A   Clear
2:30 PM 80.1 °F 82.9 °F 69.3 °F 69% 29.92 in 10.0 mi SSW 21.9 mph 29.9 mph N/A   Clear
2:50 PM 80.8 °F 83.6 °F 68.5 °F 66% 29.92 in 10.0 mi SSW 19.6 mph 26.5 mph N/A   Clear
3:15 PM 81.5 °F 84.6 °F 68.5 °F 65% 29.93 in 10.0 mi SSW 19.6 mph 23.0 mph N/A   Clear
3:35 PM 82.2 °F 85.5 °F 68.9 °F 64% 29.93 in 10.0 mi SW 17.3 mph - N/A   Clear
3:55 PM 82.4 °F 85.4 °F 68.4 °F 62% 29.93 in 10.0 mi SSW 15.0 mph 20.7 mph N/A   Clear
4:10 PM 82.8 °F 86.0 °F 68.7 °F 62% 29.93 in 10.0 mi SSW 15.0 mph 18.4 mph N/A   Clear
4:55 PM 81.3 °F 83.5 °F 66.2 °F 60% 29.94 in 10.0 mi SSW 17.3 mph - N/A   Scattered Clouds
5:35 PM 81.9 °F 84.4 °F 67.3 °F 61% 29.94 in 10.0 mi SSW 12.7 mph 18.4 mph N/A   Scattered Clouds
5:55 PM 81.3 °F 84.1 °F 68.2 °F 64% 29.95 in 10.0 mi SSW 11.5 mph - N/A   Clear
6:15 PM 80.8 °F 83.6 °F 68.4 °F 66% 29.95 in 10.0 mi SSW 12.7 mph - N/A   Clear
6:35 PM 79.7 °F - 68.9 °F 69% 29.95 in 10.0 mi South 8.1 mph - N/A   Scattered Clouds
6:55 PM 78.1 °F - 69.8 °F 76% 29.96 in 10.0 mi SSW 4.6 mph - N/A Rain Light Rain
7:15 PM 77.7 °F - 62.6 °F 60% - - SW 5.8 mph - N/A   Unknown
7:35 PM 76.6 °F - 71.6 °F 84% 29.97 in 10.0 mi SSW 4.6 mph - N/A   Mostly Cloudy
7:55 PM 76.1 °F - 71.6 °F 86% 29.97 in 10.0 mi South 5.8 mph - N/A   Scattered Clouds
8:15 PM 75.4 °F - 71.6 °F 88% 29.97 in 10.0 mi South 3.5 mph - N/A   Mostly Cloudy
8:35 PM 75.4 °F - 71.2 °F 87% 29.97 in 10.0 mi South 4.6 mph - N/A   Mostly Cloudy
8:55 PM 74.7 °F - 70.0 °F 85% 29.98 in 10.0 mi SSE 3.5 mph - N/A   Mostly Cloudy
9:15 PM 75.2 °F - 70.2 °F 84% 29.99 in 10.0 mi South 8.1 mph - N/A   Mostly Cloudy
9:35 PM 75.0 °F - 70.3 °F 85% 30.00 in 10.0 mi South 6.9 mph - N/A   Mostly Cloudy
9:55 PM 74.3 °F - 70.2 °F 87% 30.01 in 10.0 mi SSW 4.6 mph - N/A   Mostly Cloudy
10:15 PM 73.4 °F - 70.7 °F 91% 30.01 in 10.0 mi SSW 4.6 mph - N/A   Mostly Cloudy
11:15 PM 72.7 °F - 70.2 °F 92% 30.02 in 10.0 mi SSW 4.6 mph - N/A   Mostly Cloudy
11:35 PM 72.5 °F - 70.2 °F 92% 30.02 in 10.0 mi South 4.6 mph - N/A   Mostly Cloudy
11:55 PM 71.6 °F - 69.8 °F 94% 30.03 in 10.0 mi South 3.5 mph - N/A   Mostly Cloudy